GW5170 Weather Reports


time (UTC)temp
C
wind
direction
speed
KPH
gust
KPH
rain 1hr
cm
rain 24hr
cm
rain mn
cm
humidity
%
barometer
mb
20260508085120 4 330 1.6 1.6 0.00 0.00 0.00 85 1011.5
20260508084616 5 343 0.0 1.6 0.00 0.00 0.00 83 1011.5
20260508084114 5 337 1.6 1.6 0.00 0.00 0.00 81 1011.5
20260508083611 5 333 0.0 0.0 0.00 0.00 0.00 79 1011.6
20260508083108 6 336 0.0 1.6 0.00 0.00 0.00 76 1011.6
20260508082603 6 342 0.0 0.0 0.00 0.00 0.00 75 1011.6
20260508082101 5 300 1.6 1.6 0.00 0.00 0.00 79 1011.7
20260508081558 5 309 1.6 1.6 0.00 0.00 0.00 83 1011.6
20260508081054 5 333 0.0 1.6 0.00 0.00 0.00 83 1011.8
20260508080552 5 340 0.0 0.0 0.00 0.00 0.00 82 1011.7
20260508080049 5 333 1.6 1.6 0.00 0.00 0.00 82 1011.8
20260508075545 5 335 0.0 0.0 0.00 0.00 0.00 81 1011.7
20260508075043 5 335 0.0 0.0 0.00 0.00 0.00 81 1011.8
20260508074541 5 310 1.6 1.6 0.00 0.00 0.00 83 1012.1
20260508074037 5 336 0.0 0.0 0.00 0.00 0.00 84 1012.0
20260508073534 5 336 1.6 1.6 0.00 0.00 0.00 84 1012.2
20260508073032 5 340 1.6 1.6 0.00 0.00 0.00 84 1012.1
20260508072527 5 326 1.6 1.6 0.00 0.00 0.00 83 1012.2
20260508072025 6 330 0.0 0.0 0.00 0.00 0.00 81 1012.4
20260508071523 6 343 0.0 1.6 0.00 0.00 0.00 80 1012.2
20260508071020 6 337 1.6 1.6 0.00 0.00 0.00 80 1012.4
20260508070518 6 331 0.0 0.0 0.00 0.00 0.00 81 1012.4
20260508070016 6 337 0.0 0.0 0.00 0.00 0.00 80 1012.3
20260508065513 6 336 0.0 0.0 0.00 0.00 0.00 80 1012.5
20260508065012 6 336 0.0 0.0 0.00 0.00 0.00 81 1012.7
20260508064509 6 338 0.0 0.0 0.00 0.00 0.00 80 1012.6
20260508064006 5 330 0.0 0.0 0.00 0.00 0.00 81 1012.7
20260508063503 5 330 0.0 0.0 0.00 0.00 0.00 80 1012.6
20260508063001 6 322 1.6 1.6 0.00 0.00 0.00 80 1012.7
20260508062459 6 333 3.2 3.2 0.00 0.00 0.00 80 1012.7
20260508061955 6 337 1.6 1.6 0.00 0.00 0.00 79 1012.7
20260508061453 6 335 0.0 0.0 0.00 0.00 0.00 79 1012.9
20260508060949 6 338 1.6 1.6 0.00 0.00 0.00 78 1013.0
20260508060447 6 328 0.0 0.0 0.00 0.00 0.00 78 1012.8
20260508055943 6 349 1.6 1.6 0.00 0.00 0.00 78 1012.9
20260508055440 6 342 0.0 0.0 0.00 0.00 0.00 79 1013.0
20260508054936 6 337 0.0 0.0 0.00 0.00 0.00 80 1012.9
20260508054433 6 335 0.0 0.0 0.00 0.00 0.00 81 1012.9
20260508053930 6 327 1.6 1.6 0.00 0.00 0.00 80 1012.9
20260508053427 6 332 0.0 0.0 0.00 0.00 0.00 80 1012.8
20260508052925 6 335 0.0 0.0 0.00 0.00 0.00 80 1012.7
20260508052422 6 353 1.6 1.6 0.00 0.00 0.00 79 1012.9
20260508051918 6 331 4.8 4.8 0.00 0.00 0.00 78 1012.8
20260508051414 6 327 1.6 1.6 0.00 0.00 0.00 76 1012.7
20260508050910 7 338 1.6 1.6 0.00 0.00 0.00 75 1012.8
20260508050407 7 331 0.0 0.0 0.00 0.00 0.00 74 1012.8
20260508045903 7 344 0.0 0.0 0.00 0.00 0.00 74 1012.9
20260508045401 7 332 0.0 0.0 0.00 0.00 0.00 72 1012.8
20260508044858 7 316 1.6 1.6 0.00 0.00 0.00 72 1012.7
20260508044355 7 332 0.0 1.6 0.00 0.00 0.00 71 1012.8
20260508043850 7 326 0.0 0.0 0.00 0.00 0.00 71 1012.7
20260508043348 7 319 0.0 0.0 0.00 0.00 0.00 70 1012.8
20260508042844 7 307 1.6 1.6 0.00 0.00 0.00 72 1012.8
20260508042342 7 320 0.0 0.0 0.00 0.00 0.00 74 1012.5
20260508041839 7 331 0.0 1.6 0.00 0.00 0.00 75 1012.8
20260508041335 7 332 1.6 3.2 0.00 0.00 0.00 74 1012.5
20260508040832 7 334 0.0 0.0 0.00 0.00 0.00 74 1012.5
20260508040329 7 337 1.6 3.2 0.00 0.00 0.00 75 1012.5
20260508035826 7 331 0.0 1.6 0.00 0.00 0.00 74 1012.5
20260508035324 8 350 1.6 1.6 0.00 0.00 0.00 73 1012.5
20260508034820 8 340 1.6 1.6 0.00 0.00 0.00 71 1012.3
20260508034318 8 346 1.6 1.6 0.00 0.00 0.00 70 1012.4
20260508033814 8 323 0.0 0.0 0.00 0.00 0.00 69 1012.4
20260508033313 8 330 0.0 0.0 0.00 0.00 0.00 70 1012.1
20260508032810 8 330 1.6 1.6 0.00 0.00 0.00 71 1011.9
20260508032307 8 340 0.0 0.0 0.00 0.00 0.00 70 1011.9
20260508031803 8 335 0.0 0.0 0.00 0.00 0.00 70 1012.0
20260508031300 8 330 0.0 0.0 0.00 0.00 0.00 69 1012.0
20260508030756 9 331 1.6 1.6 0.00 0.00 0.00 68 1011.8
20260508030254 9 330 0.0 1.6 0.00 0.00 0.00 68 1012.0
20260508025750 10 336 0.0 0.0 0.00 0.00 0.00 66 1011.8
20260508025248 10 333 0.0 0.0 0.00 0.00 0.00 65 1011.7
20260508024744 10 336 0.0 0.0 0.00 0.00 0.00 64 1011.9
20260508024240 10 339 1.6 1.6 0.00 0.00 0.00 63 1011.7
20260508023738 11 336 0.0 0.0 0.00 0.00 0.00 61 1011.5
20260508023235 11 336 0.0 0.0 0.00 0.00 0.00 59 1011.4
20260508022731 11 336 0.0 0.0 0.00 0.00 0.00 57 1011.5
20260508022227 11 336 0.0 0.0 0.00 0.00 0.00 56 1011.3
20260508021724 12 335 0.0 0.0 0.00 0.00 0.00 54 1011.2
20260508021219 12 335 0.0 0.0 0.00 0.00 0.00 52 1011.1
20260508020717 12 335 0.0 0.0 0.00 0.00 0.00 50 1011.2
20260508020214 12 336 0.0 0.0 0.00 0.00 0.00 48 1011.1
20260508015711 13 335 0.0 0.0 0.00 0.00 0.00 46 1011.0
20260508015208 13 335 0.0 0.0 0.00 0.00 0.00 44 1011.0
20260508014705 13 335 0.0 0.0 0.00 0.00 0.00 43 1011.0
20260508014201 14 335 0.0 0.0 0.00 0.00 0.00 41 1010.9
20260508013657 15 335 0.0 0.0 0.00 0.00 0.00 39 1011.0
20260508013154 15 334 0.0 0.0 0.00 0.00 0.00 38 1010.8
20260508012652 15 318 1.6 1.6 0.00 0.00 0.00 37 1011.0
20260508012148 15 334 0.0 0.0 0.00 0.00 0.00 38 1010.8
20260508011647 15 331 1.6 1.6 0.00 0.00 0.00 37 1010.8
20260508011144 16 322 1.6 3.2 0.00 0.00 0.00 37 1010.6
20260508010641 16 311 1.6 1.6 0.00 0.00 0.00 36 1010.6
20260508010139 16 339 3.2 3.2 0.00 0.00 0.00 36 1010.6
20260508005636 16 327 3.2 3.2 0.00 0.00 0.00 35 1010.6
20260508005132 17 319 3.2 4.8 0.00 0.00 0.00 35 1010.6
20260508004627 17 305 3.2 3.2 0.00 0.00 0.00 35 1010.5
20260508004125 17 281 6.4 6.4 0.00 0.00 0.00 35 1010.4
20260508003621 17 312 8.0 9.7 0.00 0.00 0.00 34 1010.4
20260508003119 17 308 1.6 1.6 0.00 0.00 0.00 35 1010.4
20260508002615 17 315 3.2 4.8 0.00 0.00 0.00 34 1010.3
20260508002113 17 306 1.6 3.2 0.00 0.00 0.00 34 1010.3
20260508001608 17 290 1.6 3.2 0.00 0.00 0.00 34 1010.2
20260508001104 18 310 4.8 6.4 0.00 0.00 0.00 34 1010.3
20260508000600 18 327 6.4 6.4 0.00 0.00 0.00 35 1010.4
20260508000057 18 294 3.2 3.2 0.00 0.00 0.00 34 1010.1
20260507235554 18 252 6.4 11.3 0.00 0.00 0.00 34 1010.2
20260507235052 18 267 4.8 4.8 0.00 0.00 0.00 34 1010.2
20260507234548 18 277 4.8 6.4 0.00 0.00 0.00 33 1010.2
20260507234044 18 264 9.7 11.3 0.00 0.00 0.00 34 1010.2
20260507233541 18 257 12.9 17.7 0.00 0.00 0.00 33 1010.1
20260507233040 18 288 8.0 12.9 0.00 0.00 0.00 34 1010.3
20260507232536 18 256 11.3 14.5 0.00 0.00 0.00 34 1010.1
20260507232033 18 323 11.3 16.1 0.00 0.00 0.00 34 1010.2
20260507231529 18 269 9.7 12.9 0.00 0.00 0.00 33 1010.2
20260507231027 18 332 6.4 11.3 0.00 0.00 0.00 32 1010.4
20260507230524 18 288 11.3 12.9 0.00 0.00 0.00 33 1010.3
20260507230020 18 239 6.4 11.3 0.00 0.00 0.00 31 1010.4
20260507225515 18 221 9.7 12.9 0.00 0.00 0.00 32 1010.3
20260507225012 18 271 8.0 11.3 0.00 0.00 0.00 31 1010.3
20260507224508 19 304 4.8 4.8 0.00 0.00 0.00 31 1010.5
20260507224004 19 330 1.6 3.2 0.00 0.00 0.00 31 1010.4
20260507223500 18 306 9.7 12.9 0.00 0.00 0.00 32 1010.5
20260507222958 18 284 14.5 16.1 0.00 0.00 0.00 33 1010.2
20260507222454 19 294 14.5 17.7 0.00 0.00 0.00 31 1010.4
20260507221951 19 1 9.7 11.3 0.00 0.00 0.00 32 1010.4
20260507221448 19 341 12.9 16.1 0.00 0.00 0.00 32 1010.3
20260507220944 18 327 6.4 9.7 0.00 0.00 0.00 30 1010.4
20260507220442 18 312 9.7 12.9 0.00 0.00 0.00 31 1010.3
20260507215938 18 349 8.0 11.3 0.00 0.00 0.00 33 1010.4
20260507215435 17 305 9.7 14.5 0.00 0.00 0.00 34 1010.4
20260507214932 17 257 9.7 14.5 0.00 0.00 0.00 34 1010.5
20260507214430 18 311 19.3 27.4 0.00 0.00 0.00 34 1010.3
20260507213925 18 275 8.0 9.7 0.00 0.00 0.00 33 1010.4
20260507213422 18 269 12.9 17.7 0.00 0.00 0.00 34 1010.4
20260507212919 18 27 9.7 16.1 0.00 0.00 0.00 33 1010.4
20260507212415 18 333 8.0 12.9 0.00 0.00 0.00 31 1010.6
20260507211912 17 294 14.5 17.7 0.00 0.00 0.00 32 1010.5
20260507211408 17 281 14.5 20.9 0.00 0.00 0.00 34 1010.5
20260507210905 17 294 12.9 16.1 0.00 0.00 0.00 36 1010.5
20260507210402 17 242 14.5 17.7 0.00 0.00 0.00 36 1010.5
20260507205858 17 312 4.8 9.7 0.00 0.00 0.00 39 1010.5
20260507205355 17 298 6.4 6.4 0.00 0.00 0.00 39 1010.5
20260507204852 17 260 9.7 11.3 0.00 0.00 0.00 39 1010.8
20260507204349 17 332 3.2 6.4 0.00 0.00 0.00 39 1010.7
20260507203846 17 251 9.7 11.3 0.00 0.00 0.00 38 1010.8
20260507203339 17 266 14.5 20.9 0.00 0.00 0.00 36 1010.7
20260507202835 18 264 14.5 20.9 0.00 0.00 0.00 35 1010.8
20260507202331 18 198 8.0 11.3 0.00 0.00 0.00 35 1010.7
20260507201827 17 222 16.1 17.7 0.00 0.00 0.00 35 1010.8
20260507201323 18 304 20.9 25.7 0.00 0.00 0.00 36 1010.9
20260507200819 17 291 17.7 20.9 0.00 0.00 0.00 37 1010.7
20260507200315 17 167 9.7 16.1 0.00 0.00 0.00 37 1010.9
20260507195811 18 243 22.5 30.6 0.00 0.00 0.00 37 1010.9
20260507195309 18 255 12.9 16.1 0.00 0.00 0.00 36 1010.9
20260507194806 17 303 6.4 14.5 0.00 0.00 0.00 36 1010.9
20260507194302 17 242 12.9 17.7 0.00 0.00 0.00 37 1011.1
20260507193759 17 288 17.7 22.5 0.00 0.00 0.00 38 1011.3
20260507193256 17 239 14.5 16.1 0.00 0.00 0.00 39 1011.1
20260507192752 16 85 8.0 12.9 0.00 0.00 0.00 39 1011.5
20260507192249 17 263 16.1 17.7 0.00 0.00 0.00 37 1011.3
20260507191745 16 267 14.5 16.1 0.00 0.00 0.00 39 1011.2
20260507191242 17 344 9.7 11.3 0.00 0.00 0.00 39 1011.2
20260507190738 16 277 17.7 24.1 0.00 0.00 0.00 41 1011.1
20260507190237 16 263 9.7 16.1 0.00 0.00 0.00 38 1011.5
20260507185735 17 278 6.4 6.4 0.00 0.00 0.00 33 1011.3
20260507185232 17 332 4.8 6.4 0.00 0.00 0.00 32 1011.3
20260507184729 17 196 17.7 20.9 0.00 0.00 0.00 32 1011.4
20260507184227 17 207 9.7 14.5 0.00 0.00 0.00 34 1011.3
20260507183723 16 326 6.4 9.7 0.00 0.00 0.00 36 1011.4
20260507183220 17 306 9.7 12.9 0.00 0.00 0.00 35 1011.3
20260507182718 16 10 6.4 9.7 0.00 0.00 0.00 36 1011.5
20260507182213 16 326 12.9 14.5 0.00 0.00 0.00 35 1011.4
20260507181710 16 305 9.7 11.3 0.00 0.00 0.00 37 1011.4
20260507181206 16 250 8.0 11.3 0.00 0.00 0.00 38 1011.6
20260507180702 16 323 14.5 22.5 0.00 0.00 0.00 37 1011.7
20260507180200 15 276 11.3 12.9 0.00 0.00 0.00 39 1011.7
20260507175655 15 241 19.3 24.1 0.00 0.00 0.00 40 1011.7
20260507175153 15 291 11.3 16.1 0.00 0.00 0.00 42 1012.0
20260507174650 16 281 16.1 20.9 0.00 0.00 0.00 42 1012.2
20260507174148 16 284 14.5 20.9 0.00 0.00 0.00 41 1012.0
20260507173644 16 240 8.0 9.7 0.00 0.00 0.00 41 1012.1
20260507173141 15 260 16.1 20.9 0.00 0.00 0.00 44 1012.3
20260507172637 15 250 16.1 20.9 0.00 0.00 0.00 45 1012.2
20260507172135 15 269 9.7 12.9 0.00 0.00 0.00 45 1012.1
20260507171635 16 239 30.6 38.6 0.00 0.00 0.00 45 1012.2
20260507171133 15 285 20.9 29.0 0.00 0.00 0.00 47 1012.5
20260507170630 15 253 12.9 16.1 0.00 0.00 0.00 43 1012.4
20260507170127 15 252 19.3 24.1 0.00 0.00 0.00 43 1012.2
20260507165622 16 278 14.5 17.7 0.00 0.00 0.00 44 1012.3
20260507165119 15 251 17.7 24.1 0.00 0.00 0.00 45 1012.5
20260507164614 15 299 11.3 12.9 0.00 0.00 0.00 44 1012.6
20260507164111 15 258 9.7 17.7 0.00 0.00 0.00 45 1012.8
20260507163609 14 250 8.0 12.9 0.00 0.00 0.00 47 1012.8
20260507163107 14 242 8.0 11.3 0.00 0.00 0.00 47 1012.8
20260507162607 15 314 9.7 12.9 0.00 0.00 0.00 46 1013.0
20260507162105 13 271 8.0 9.7 0.00 0.00 0.00 49 1013.0
20260507161600 14 277 14.5 17.7 0.00 0.00 0.00 49 1013.1
20260507161057 14 269 9.7 12.9 0.00 0.00 0.00 48 1013.1
20260507160554 14 288 9.7 14.5 0.00 0.00 0.00 48 1013.2
20260507160050 13 270 6.4 9.7 0.00 0.00 0.00 47 1013.3
20260507155545 13 344 9.7 12.9 0.00 0.00 0.00 48 1013.2
20260507155043 13 269 9.7 16.1 0.00 0.00 0.00 49 1013.3
20260507154540 13 261 12.9 17.7 0.00 0.00 0.00 47 1013.1
20260507154037 13 222 12.9 20.9 0.00 0.00 0.00 48 1013.2
20260507153534 13 276 3.2 4.8 0.00 0.00 0.00 47 1013.1
20260507153030 13 325 3.2 3.2 0.00 0.00 0.00 47 1013.5
20260507152525 13 287 12.9 17.7 0.00 0.00 0.00 46 1013.3
20260507152022 13 219 14.5 16.1 0.00 0.00 0.00 46 1013.4
20260507151518 13 268 6.4 12.9 0.00 0.00 0.00 45 1013.4
20260507151015 12 281 14.5 17.7 0.00 0.00 0.00 45 1013.6
20260507150512 12 325 9.7 12.9 0.00 0.00 0.00 45 1013.7
20260507150009 12 223 9.7 14.5 0.00 0.00 0.00 45 1013.6
20260507145504 12 295 8.0 12.9 0.00 0.00 0.00 45 1013.7
20260507145002 11 208 9.7 12.9 0.00 0.00 0.00 45 1013.9
20260507144458 11 200 9.7 11.3 0.00 0.00 0.00 45 1013.7
20260507143955 11 265 11.3 14.5 0.00 0.00 0.00 47 1014.4
20260507143453 11 308 1.6 3.2 0.00 0.00 0.00 49 1014.1
20260507142949 11 289 4.8 4.8 0.00 0.00 0.00 48 1014.2
20260507142445 11 271 4.8 4.8 0.00 0.00 0.00 49 1014.0
20260507141943 11 294 0.0 1.6 0.00 0.00 0.00 49 1014.3
20260507141438 10 284 3.2 3.2 0.00 0.00 0.00 51 1014.6
20260507140935 10 192 6.4 9.7 0.00 0.00 0.00 50 1014.5
20260507140432 11 248 4.8 4.8 0.00 0.00 0.00 50 1014.4
20260507135930 9 270 3.2 4.8 0.00 0.00 0.00 53 1014.7
20260507135426 9 297 3.2 3.2 0.00 0.00 0.00 55 1014.6
20260507134924 9 138 3.2 4.8 0.00 0.00 0.00 56 1014.7
20260507134420 8 161 3.2 3.2 0.00 0.00 0.00 59 1014.6
20260507133916 8 317 1.6 1.6 0.00 0.00 0.00 59 1014.8
20260507133412 6 0 1.6 1.6 0.00 0.00 0.00 64 1014.7
20260507132911 6 329 1.6 1.6 0.00 0.00 0.00 66 1014.8
20260507132407 6 49 4.8 4.8 0.00 0.00 0.00 67 1014.8
20260507131905 5 7 1.6 1.6 0.00 0.00 0.00 69 1015.0
20260507131400 5 112 3.2 3.2 0.00 0.00 0.00 71 1014.9
20260507130857 4 90 3.2 4.8 0.00 0.00 0.00 73 1014.9
20260507130354 3 31 1.6 1.6 0.00 0.00 0.00 73 1015.1
20260507125853 3 49 3.2 3.2 0.00 0.00 0.00 76 1015.2
20260507125350 3 85 4.8 4.8 0.00 0.00 0.00 77 1015.3
20260507124848 2 336 0.0 1.6 0.00 0.00 0.00 78 1015.3
20260507124344 2 39 1.6 3.2 0.00 0.00 0.00 79 1015.5
20260507123843 2 39 3.2 3.2 0.00 0.00 0.00 80 1015.3
20260507123339 2 1 1.6 3.2 0.00 0.00 0.00 81 1015.2
20260507122835 2 214 3.2 3.2 0.00 0.00 0.00 81 1015.3
20260507122331 2 0 1.6 3.2 0.00 0.00 0.00 80 1015.3
20260507121828 2 355 1.6 1.6 0.00 0.00 0.00 81 1014.9
20260507121323 1 58 4.8 6.4 0.00 0.00 0.00 81 1015.2
20260507120820 1 44 1.6 3.2 0.00 0.00 0.00 81 1015.3
20260507120316 1 79 4.8 4.8 0.00 0.00 0.00 80 1015.2
20260507115812 1 147 3.2 3.2 0.00 0.00 0.00 80 1015.2
20260507115308 1 17 1.6 1.6 0.00 0.00 0.00 81 1015.5
20260507114804 1 48 3.2 3.2 0.00 0.00 0.00 83 1015.5
20260507114301 0 24 3.2 3.2 0.00 0.00 0.00 84 1015.4
20260507113759 0 10 1.6 1.6 0.00 0.00 0.00 85 1015.3
20260507113255 0 344 0.0 0.0 0.00 0.00 0.00 87 1015.5
20260507112753 0 351 1.6 1.6 0.00 0.00 0.00 86 1015.6
20260507112250 0 340 1.6 1.6 0.00 0.00 0.00 86 1015.5
20260507111748 0 347 1.6 1.6 0.00 0.00 0.00 85 1015.4
20260507111244 0 337 0.0 0.0 0.00 0.00 0.00 87 1015.4
20260507110740 0 335 0.0 0.0 0.00 0.00 0.00 89 1015.4
20260507110237 0 331 0.0 0.0 0.00 0.00 0.00 90 1015.4
20260507105734 0 329 0.0 0.0 0.00 0.00 0.00 90 1015.4
20260507105230 0 339 0.0 0.0 0.00 0.00 0.00 90 1015.6
20260507104727 0 339 0.0 1.6 0.00 0.00 0.00 90 1015.5
20260507104224 0 345 0.0 1.6 0.00 0.00 0.00 90 1015.4
20260507103720 0 343 0.0 0.0 0.00 0.00 0.00 90 1015.6
20260507103216 0 344 0.0 0.0 0.00 0.00 0.00 89 1015.6
20260507102713 0 342 0.0 0.0 0.00 0.00 0.00 89 1015.5
20260507102209 0 337 0.0 0.0 0.00 0.00 0.00 88 1015.7
20260507101705 0 332 0.0 0.0 0.00 0.00 0.00 87 1015.8
20260507101201 0 347 1.6 1.6 0.00 0.00 0.00 86 1015.7
20260507100658 0 332 1.6 1.6 0.00 0.00 0.00 86 1015.8
20260507100157 0 332 0.0 0.0 0.00 0.00 0.00 86 1015.7
20260507095654 0 333 0.0 0.0 0.00 0.00 0.00 86 1015.6
20260507095151 0 335 0.0 0.0 0.00 0.00 0.00 85 1015.7
20260507094647 0 27 1.6 1.6 0.00 0.00 0.00 84 1015.5
20260507094144 0 339 0.0 0.0 0.00 0.00 0.00 84 1015.9
20260507093641 0 338 0.0 0.0 0.00 0.00 0.00 84 1015.9
20260507093141 0 334 0.0 0.0 0.00 0.00 0.00 84 1015.9
20260507092636 0 334 0.0 0.0 0.00 0.00 0.00 83 1015.9
20260507092133 0 330 0.0 0.0 0.00 0.00 0.00 83 1015.9
20260507091629 0 337 0.0 0.0 0.00 0.00 0.00 83 1015.9
20260507091125 0 341 0.0 0.0 0.00 0.00 0.00 83 1016.0
20260507090621 0 341 0.0 0.0 0.00 0.00 0.00 83 1016.0
20260507090119 0 341 0.0 0.0 0.00 0.00 0.00 82 1015.9
20260507085616 0 349 0.0 1.6 0.00 0.00 0.00 81 1015.9